User: anonymous   Login
Location: B�di�
(14.6834°N, 3.1047°W)
Time: 12:42:12
(UTC+00:00)
Language:

Meteor 1-27 - Orbit

View from above orbital plane
View from above orbital plane
View from above satellite
View from above satellite

Ground track
Ground track

The orbit data is extracted from the following two-line orbital elements,

1  9903U 77024A   20094.68744504 +.00000129 +00000-0 +68010-4 0  9995
2  9903 081.2636 171.8196 0036731 285.7719 073.9401 14.08311288208652
Epoch (UTC): 03 April 2020 16:29:55
Eccentricity: 0.0036731
inclination: 81.2636°
perigee height: 838 km
apogee height: 892 km
right ascension of ascending node: 171.8196°
argument of perigee: 285.7719°
revolutions per day: 14.08311288
mean anomaly at epoch: 73.9401°
orbit number at epoch: 20865

The dashed part of the orbit path shows where the satellite is in the earth's shadow,  

DLR